Flag for U.S.A. Weather past 2 weeks in Austin, Texas, U.S.A.

Now
70 °F

Overcast.


Feels Like: 70 °F
Forecast: 74 / 87 °F
Wind: 6 mph from Southeast

Location: Camp Mabry / Austin City

Current Time: May 27, 2015 at 9:25:54 AM

Latest Report: May 27, 2015 at 8:51 AM


Visibility: 10 mi

Pressure: 30.06 "Hg

Humidity: 81%

Dew point: 64 °F

Location of AustinLocation

Historic Weather in Austin — Graph

°F

Austin temperature yesterday

Maximum temperature yesterday: 88 °F (at 3:51 PM)
Minimum temperature yesterday: 66 °F (at 3:51 AM)
Average temperature yesterday: 76 °F

Past Weeks' High & Low Weather Summary

 TemperatureHumidityPressure
High89 °F (May 20, 3:51 PM)100% (May 13, 4:51 AM)30.20 "Hg (May 13, 4:51 AM)
Low62 °F (May 22, 12:51 AM)55% (May 20, 3:51 PM)29.76 "Hg (May 25, 2:58 PM)
Average74 °F87%29.98 "Hg
* Reported May 12 7:51 AM — May 27 7:51 AM, Austin, Weather by CustomWeather, © 2015

Note: Actual official high and low records may vary slightly from our data, if they occured in-between our weather recording intervals... More about our weather records

Advertising

Austin weather history for previous 24 hours

 ConditionsComfort  
Time TempWeatherWind HumidityBarometerVisibility
7:51 AM
Wed, May 27
68 °FOvercast.No wind87%30.03 "Hg10 mi
6:51 AM67 °FPassing clouds.No wind90%30.00 "Hg10 mi
5:51 AM68 °FMostly cloudy.No wind87%30.00 "Hg10 mi
4:51 AM70 °FMostly cloudy.8 mph87%30.00 "Hg10 mi
3:51 AM76 °FFog.3 mph94%29.98 "Hg6 mi
2:51 AM76 °FMostly cloudy.3 mph91%29.98 "Hg7 mi
1:51 AM77 °FOvercast.5 mph90%30.00 "Hg8 mi
12:51 AM77 °FOvercast.6 mph90%29.98 "Hg9 mi
11:51 PM
Tue, May 26
77 °FOvercast.8 mph90%29.98 "Hg9 mi
10:51 PM78 °FPassing clouds.5 mph87%29.95 "Hg10 mi
9:51 PM80 °FMostly cloudy.9 mph79%29.96 "Hg10 mi
8:51 PM81 °FCloudy.10 mph77%29.93 "Hg10 mi
7:51 PM83 °FPassing clouds.7 mph70%29.90 "Hg10 mi
6:51 PM86 °FPassing clouds.10 mph65%29.88 "Hg10 mi
5:51 PM87 °FPassing clouds.7 mph61%29.90 "Hg10 mi
4:51 PM88 °FPassing clouds.7 mph61%29.92 "Hg10 mi
3:51 PM88 °FPassing clouds.7 mph63%29.93 "Hg10 mi
2:51 PM87 °FPassing clouds.9 mph65%29.94 "Hg10 mi
1:51 PM84 °FBroken clouds.7 mph72%29.96 "Hg9 mi
12:58 PM84 °FBroken clouds.8 mph74%30.00 "Hg9 mi
11:51 AM77 °FOvercast.6 mph88%29.98 "Hg7 mi
10:51 AM74 °FFog.7 mph94%29.99 "Hg5 mi
9:51 AM71 °FFog.3 mph96%30.00 "Hg4 mi
Weather by CustomWeather, © 2015

See weather overviewHow to use our weather pages